Regional Weather Roundup
Issued by NWS

Home | Current Version | Previous Version | Text Only | Print | Product List | Glossary On
Versions: 1 2 3 4 5 6 7 8 9 10 11 12 13 14 15 16 17 18 19 20 21 22 23 24 25 26 27 28 29 30 31 32 33 34 35 36 37 38 39 40 41 42 43 44 45 46 47 48 49 50
000
ASUS43 KMKX 290020
RWRWI

WISCONSIN REGIONAL WEATHER ROUNDUP
NATIONAL WEATHER SERVICE MILWAUKEE/SULLIVAN WI
700 PM CDT SAT MAR 28 2015

NOTE: "FAIR" INDICATES FEW OR NO CLOUDS BELOW 12,000 FEET WITH NO
SIGNIFICANT WEATHER AND/OR OBSTRUCTIONS TO VISIBILITY.

WIZ001-002-006>008-014>016-023>028-290100-
NORTHWEST WISCONSIN

CITY           SKY/WX    TMP DP  RH WIND       PRES   REMARKS
SUPERIOR ARPT  PTCLDY    41  14  32 SW9G20    30.01S
6HR MIN TEMP:  41; 6HR MAX TEMP:  45;

ASHLAND        PTCLDY    40   9  28 S13G22    30.04F WCI  32
6HR MIN TEMP:  40; 6HR MAX TEMP:  46;

HAYWARD        CLEAR     39   9  29 S14       30.05F WCI  31
6HR MIN TEMP:  36; 6HR MAX TEMP:  42;

SIREN          CLEAR     39  12  33 S15G23    30.06S WCI  30
6HR MIN TEMP:  39; 6HR MAX TEMP:  44;

CUMBERLAND     CLEAR     36  14  41 SW14G23   30.07F WCI  27
RICE LAKE      CLEAR     38  11  32 S15       30.10F WCI  29
6HR MIN TEMP:  38; 6HR MAX TEMP:  42;

CHETEK         CLEAR     37  12  36 S14       30.10F WCI  28
6HR MIN TEMP:  37; 6HR MAX TEMP:  42;

LADYSMITH      CLEAR     39  11  31 S13       30.10F WCI  31
6HR MIN TEMP:  38; 6HR MAX TEMP:  42;

EAU CLAIRE     CLEAR     37   8  30 SW14      30.12F WCI  28
6HR MIN TEMP:  37; 6HR MAX TEMP:  43;

MENOMONIE      CLEAR     38  13  36 S12       30.12F WCI  30
6HR MIN TEMP:  38; 6HR MAX TEMP:  42;

NEW RICHMOND   CLEAR     37  18  45 S15       30.09F WCI  28
6HR MIN TEMP:  37; 6HR MAX TEMP:  41;

OSCEOLA        CLEAR     39  20  46 S13       30.11S WCI  31
6HR MIN TEMP:  39; 6HR MAX TEMP:  44;

$$

WIZ003>005-009-010-017-018-290100-
NORTH CENTRAL WISCONSIN

CITY           SKY/WX    TMP DP  RH WIND       PRES   REMARKS
MANITOWISH WTR CLEAR     37  10  32 SW9       30.05F WCI  30
6HR MIN TEMP:  35; 6HR MAX TEMP:  40;

ARBOR VITAE    CLEAR     37  13  37 S9        30.07S WCI  30
6HR MIN TEMP:  37; 6HR MAX TEMP:  42;

WOODRUFF       CLEAR     37  13  37 S9        30.07S WCI  30
6HR MIN TEMP:  37; 6HR MAX TEMP:  42;

RHINELANDER    CLEAR     35  10  35 SW10      30.09F WCI  27
6HR MIN TEMP:  35; 6HR MAX TEMP:  40;

EAGLE RIVER    CLEAR     35   6  29 SW8       30.07F WCI  28
6HR MIN TEMP:  34; 6HR MAX TEMP:  39;

LAND O LAKES   CLEAR     36   8  31 S6        30.07S WCI  31
6HR MIN TEMP:  36; 6HR MAX TEMP:  40;

PHILLIPS       CLEAR     37  10  33 SW9       30.08S WCI  30
6HR MIN TEMP:  35; 6HR MAX TEMP:  40;

TOMAHAWK       CLEAR     35  11  36 CALM      30.10F
6HR MIN TEMP:  35; 6HR MAX TEMP:  38;

MEDFORD        CLEAR     35  15  43 SW10      30.10S WCI  28
6HR MIN TEMP:  33; 6HR MAX TEMP:  38;

MERRILL        CLEAR     37  11  33 S8        30.11F WCI  31
6HR MIN TEMP:  35; 6HR MAX TEMP:  40;

$$

WIZ029-030-035-036-043>047-290100-
CENTRAL WISCONSIN

CITY           SKY/WX    TMP DP  RH WIND       PRES   REMARKS
WAUSAU         CLEAR     37   9  31 SW13      30.11F WCI  29
6HR MIN TEMP:  35; 6HR MAX TEMP:  40;

MOSINEE        CLEAR     36  12  38 S10       30.14F WCI  28
MARSHFIELD     CLEAR     37  11  34 S13       30.13F WCI  29
6HR MIN TEMP:  37; 6HR MAX TEMP:  42;

STEVENS POINT  CLEAR     36   7  30 S8        30.16S WCI  29
6HR MIN TEMP:  33; 6HR MAX TEMP:  39;

WAUPACA        CLEAR     40   8  27 S9        30.18S WCI  33
6HR MIN TEMP:  39; 6HR MAX TEMP:  45;

WAUTOMA        CLEAR     38   9  30 S9        30.19F WCI  31
6HR MIN TEMP:  37; 6HR MAX TEMP:  43;

WISC RAPIDS    CLEAR     38   7  27 S12       30.17F WCI  30
6HR MIN TEMP:  38; 6HR MAX TEMP:  42;

CAMP DOUGLAS   CLEAR     37  10  33 S7        30.17F WCI  32
6HR MIN TEMP:  37; 6HR MAX TEMP:  42;

$$

WIZ011>013-019>022-031-037>040-048>050-290100-
NORTHEAST WISCONSIN

CITY           SKY/WX    TMP DP  RH WIND       PRES   REMARKS
ANTIGO         CLEAR     33  13  43 SW9       30.12F WCI  26
6HR MIN TEMP:  32; 6HR MAX TEMP:  36;

SHAWANO        CLEAR     39  11  30 S5        30.17F
6HR MIN TEMP:  37; 6HR MAX TEMP:  42;

OCONTO         CLEAR     35  17  47 S6        30.18F WCI  30
6HR MIN TEMP:  33; 6HR MAX TEMP:  39;

STURGEON BAY   CLEAR     28  21  74 S10       30.22S WCI  19
6HR MIN TEMP:  28; 6HR MAX TEMP:  34;

GREEN BAY      CLEAR     36  17  46 S8        30.20F WCI  30
6HR MIN TEMP:  34; 6HR MAX TEMP:  38;

MANITOWOC      CLEAR     30  21  69 S15       30.24F WCI  19
6HR MIN TEMP:  30; 6HR MAX TEMP:  34;

APPLETON       CLEAR     37  10  32 S9        30.20F WCI  31
CLINTONVILLE   CLEAR     37   9  30 S7        30.17F WCI  32
OSHKOSH        CLEAR     36  14  40 SW9       30.20F WCI  29
6HR MIN TEMP:  34; 6HR MAX TEMP:  40;

$$

WIZ032>034-041-042-053>061-290100-
SOUTHWEST WISCONSIN

CITY           SKY/WX    TMP DP  RH WIND       PRES   REMARKS
LA CROSSE      CLEAR     40  14  34 S12       30.18F WCI  33
6HR MIN TEMP:  39; 6HR MAX TEMP:  43;

SPARTA         CLEAR     37   9  32 S7        30.19S WCI  31
6HR MIN TEMP:  37; 6HR MAX TEMP:  41;

VIROQUA        CLEAR     35  17  46 S5        30.17F WCI  31
6HR MIN TEMP:  34; 6HR MAX TEMP:  38;

BOSCOBEL       CLEAR     40  13  33 S6        30.20F
6HR MIN TEMP:  36; 6HR MAX TEMP:  41;

PRAIRIE DU CHI CLEAR     39  11  31 SE10      30.19S WCI  32
6HR MIN TEMP:  35; 6HR MAX TEMP:  40;

PLATTEVILLE    CLEAR     37  16  42 SE10      30.21R WCI  29
6HR MIN TEMP:  35; 6HR MAX TEMP:  40;

$$

WIZ056-057-062-063-064-067-068-290100-
SOUTH CENTRAL WISCONSIN

CITY           SKY/WX    TMP DP  RH WIND       PRES   REMARKS
REEDSBURG      CLEAR     35  14  41 SW7       30.20S WCI  29
6HR MIN TEMP:  35; 6HR MAX TEMP:  39;

BARABOO/DELLS  CLEAR     35  10  36 SW10      30.21S WCI  27
6HR MIN TEMP:  35; 6HR MAX TEMP:  40;

LONE ROCK      CLEAR     37  15  40 S7        30.22S WCI  32
6HR MIN TEMP:  36; 6HR MAX TEMP:  40;

MINERAL POINT  CLEAR     36  14  41 S6        30.20F WCI  31
MADISON        PTCLDY    36  12  37 VRB5      30.22F WCI  32
6HR MIN TEMP:  34; 6HR MAX TEMP:  38;

MIDDLETON      CLEAR     38  10  32 SW5       30.23R WCI  34
6HR MIN TEMP:  37; 6HR MAX TEMP:  40;

WATERTOWN      CLEAR     35  13  41 SW8       30.23S WCI  28
6HR MIN TEMP:  35; 6HR MAX TEMP:  39;

MONROE         CLEAR     36  18  48 S8        30.22S WCI  29
JANESVILLE     CLEAR     37  10  32 S7        30.23F WCI  32
$$

WIZ051-052-058>065-066-070>072-290100-
SOUTHEAST WISCONSIN

CITY           SKY/WX    TMP DP  RH WIND       PRES   REMARKS
MILWAUKEE      CLEAR     30  12  47 S12       30.26F WCI  20
6HR MIN TEMP:  30; 6HR MAX TEMP:  34;

WAUKESHA       CLEAR     34  16  47 SE12      30.24F WCI  25
MILWAUKEE/TIMM CLEAR     32  12  43 SE8       30.26F WCI  25
RACINE         CLEAR     29  14  53 S12       30.29F WCI  19
6HR MIN TEMP:  29; 6HR MAX TEMP:  33;

BURLINGTON     CLEAR     32  14  47 SE12      30.25S WCI  23
6HR MIN TEMP:  32; 6HR MAX TEMP:  38;

KENOSHA        CLEAR     29  13  51 SE7       30.27F WCI  22
6HR MIN TEMP:  29; 6HR MAX TEMP:  34;

FOND DU LAC    CLEAR     36  12  37 SW8       30.21F WCI  30
6HR MIN TEMP:  35; 6HR MAX TEMP:  40; 6HR PCP: TRACE;

SHEBOYGAN      CLEAR     29  18  63 S12G17    30.24F WCI  19
6HR MIN TEMP:  29; 6HR MAX TEMP:  37;

WEST BEND      CLEAR     30  14  51 SE6       30.23F WCI  24
JUNEAU         CLEAR     34  14  43 SW9       30.23F WCI  27
6HR MIN TEMP:  33; 6HR MAX TEMP:  38;

$$

LSZ147-162-290100-
LAKE SUPERIOR

STATION/POSITION TIME  TEMP    WIND        PRES    WAVE
                       AIR SEA DIR/SP/G            HT/PER
                 (UTC) (F)     (DEG/KT/KT) (MB)    (FT/S)
DEVILS ISLAND    0000   33     130/  7/  8 1017.8F
PORT WING        2300   44     200/ 11/ 19 1017.3F
SAXON HARBOR     2300   44     200/ 13/ 18 1017.6F
$$

LMZ867-665-643>646-290100-
LAKE MICHIGAN

STATION/POSITION TIME  TEMP    WIND        PRES    WAVE



USA.gov is the U.S. government's official web portal to all federal, state and local government web resources and services.